GFSFLT2_con_lsi_105.txt.gz
Lid_Strength_Index
2 2 2 1 1 1 1 1 0 2 6 8 5 5 2 3 2 2 4 3 4 6 7 9 7 8 10 9
2 2 2 2 1 1 1 1 1 4 8 3 4 3 3 3 2 2 2 3 3 5 7 7 8 10 11 13
2 2 2 1 1 1 1 1 4 6 9 2 5 3 3 3 3 3 3 2 4 7 7 11 12 12 15 13
2 2 2 2 1 1 2 2 3 10 8 7 4 3 3 3 4 4 5 6 8 10 10 12 17 14 14 13
2 2 5 8 9 11 8 10 9 8 7 5 4 5 3 4 4 6 10 8 10 13 10 10 10 11 13 13
2 3 7 8 9 8 11 7 6 6 5 5 7 6 3 7 7 10 9 11 13 9 8 9 10 11 13 13
3 6 8 8 6 6 11 8 6 7 6 6 8 7 5 6 8 10 10 12 10 7 9 10 11 12 13 13
7 8 8 6 7 6 13 11 9 8 6 6 8 4 4 6 8 10 9 11 8 9 10 11 10 14 10 10
8 8 7 6 6 7 19 10 9 6 8 8 8 7 4 6 9 9 10 12 11 10 11 10 10 12 9 11
7 7 6 6 7 14 18 12 9 11 11 10 9 7 9 8 7 10 11 11 9 8 10 8 9 8 11 12
9 6 6 9 15 17 11 13 13 12 12 12 11 10 12 13 13 15 15 12 11 9 8 11 10 10 14 19
6 6 9 13 17 13 14 11 12 12 13 12 12 12 13 14 12 13 15 16 16 11 9 11 12 13 14 18
5 7 12 16 16 14 12 13 13 15 15 13 14 14 14 14 13 13 16 15 15 10 9 10 10 12 16 13
5 9 13 14 14 12 12 12 16 14 17 15 15 15 15 12 12 11 12 14 16 12 10 9 9 12 10 17
8 11 15 15 13 12 11 13 15 15 15 15 15 16 15 13 11 11 11 13 15 14 12 13 14 14 15 14
12 14 14 13 10 12 11 12 12 13 14 14 15 15 15 14 11 11 13 13 15 16 14 12 11 13 14 13
14 14 13 12 12 12 12 12 12 12 13 14 16 14 14 11 12 12 14 13 16 19 16 14 12 14 13 13

GFSFLT2_con_lsi_111.txt.gz
Lid_Strength_Index
2 2 1 1 1 1 1 1 1 3 6 7 5 4 4 4 3 2 3 3 4 5 6 8 7 7 9 8
2 1 1 1 1 1 1 1 1 4 9 4 4 4 3 3 2 2 2 2 3 5 6 6 8 10 9 12
2 1 1 1 0 1 1 1 4 6 9 3 6 4 3 4 3 3 2 2 4 6 6 9 11 10 13 12
1 1 2 1 0 2 2 2 4 9 8 8 6 5 3 3 4 4 5 5 7 8 9 10 15 14 13 12
2 1 5 9 10 10 8 9 9 9 8 6 5 6 4 5 5 7 9 7 9 11 10 9 9 10 12 13
2 2 6 8 8 8 11 7 7 7 6 6 8 7 5 7 7 9 8 10 11 9 8 8 10 10 12 12
3 6 8 8 7 6 11 9 7 7 7 6 8 8 6 7 8 9 10 11 10 8 9 9 10 10 12 12
6 7 8 6 6 5 13 11 9 8 7 6 9 6 6 7 8 10 10 11 9 10 10 10 10 13 9 10
8 8 7 6 5 8 18 11 9 7 9 9 9 8 7 7 10 10 10 13 12 11 10 10 9 11 9 11
7 7 6 6 8 14 17 12 10 12 11 11 11 9 10 9 9 12 12 11 10 9 9 8 8 8 10 11
9 6 6 9 14 17 12 13 13 12 13 13 12 12 12 13 14 16 16 14 12 10 8 10 9 10 13 18
5 5 8 13 16 14 13 11 13 13 14 13 13 13 13 14 13 14 16 16 16 12 10 10 11 12 13 18
5 7 11 15 15 14 12 13 13 15 15 14 14 14 14 14 13 13 15 16 16 12 10 10 9 11 14 11
5 9 12 13 13 11 11 12 16 14 16 15 15 15 15 13 13 12 12 14 17 13 12 9 10 10 9 15
8 11 13 14 12 10 10 13 14 15 15 14 15 15 15 13 12 12 12 14 15 15 13 13 13 12 13 12
12 14 13 12 9 11 10 11 12 13 14 14 15 15 15 13 13 12 15 13 15 17 15 13 12 11 12 12
14 14 12 11 10 11 12 12 12 12 12 14 15 15 14 12 12 13 14 14 16 19 18 14 13 13 12 12

GFSFLT2_con_lsi_114.txt.gz
Lid_Strength_Index
2 1 1 1 0 1 1 1 0 2 5 6 2 2 3 3 2 2 3 2 2 4 4 6 5 5 8 6
1 1 1 1 0 1 1 1 1 2 6 2 1 3 2 2 2 2 2 2 2 3 5 4 6 7 7 10
2 1 2 0 0 1 1 1 2 4 7 2 4 3 2 3 3 2 2 2 2 5 5 7 8 8 11 10
1 1 2 1 1 2 1 2 3 6 6 6 4 4 2 3 4 4 4 4 4 6 6 8 12 11 11 10
2 2 3 5 6 7 5 7 7 7 6 4 4 5 3 4 4 5 8 6 7 9 8 7 8 9 10 10
2 4 3 6 6 5 8 6 6 5 5 4 7 5 3 6 6 8 7 8 9 7 6 7 8 8 10 10
2 4 4 6 4 4 7 7 5 5 6 5 7 6 5 6 8 9 9 10 9 7 8 8 9 8 10 10
4 4 5 4 3 3 9 9 8 6 6 6 8 5 6 6 8 10 9 9 8 9 8 9 8 10 8 9
4 5 4 3 3 4 13 9 8 6 7 8 8 7 6 7 9 9 10 11 10 10 9 9 8 9 8 10
3 4 2 3 3 10 14 10 8 10 9 9 9 8 8 7 8 10 10 10 9 9 8 7 7 7 9 10
5 2 2 4 10 12 10 11 11 11 11 11 10 10 10 11 11 13 13 11 11 9 8 9 7 8 10 16
2 2 3 8 12 11 11 10 11 11 12 11 11 11 11 11 10 11 12 14 14 11 9 9 10 10 11 16
2 2 6 10 10 10 9 10 11 12 12 12 11 12 12 12 11 11 13 14 14 10 10 8 8 9 12 10
2 4 7 9 9 8 9 10 12 11 13 13 12 12 13 11 12 11 10 12 15 12 11 8 8 8 8 13
4 6 9 8 9 8 8 10 11 12 12 12 12 13 13 11 11 12 11 11 13 13 11 12 12 10 10 10
8 8 9 8 8 8 8 9 10 10 11 11 12 12 13 11 10 11 13 11 13 15 14 11 10 10 11 11
10 9 8 9 8 9 9 9 10 9 10 11 13 12 12 11 11 12 12 11 13 15 14 12 12 12 11 11

GFSFLT2_con_lsi_117.txt.gz
Lid_Strength_Index
1 1 1 1 0 0 0 0 0 1 4 5 2 1 2 2 2 2 3 2 2 4 4 6 4 5 7 6
1 1 1 1 1 1 1 1 0 2 6 2 1 2 2 2 2 1 2 1 2 3 4 4 5 7 7 10
2 1 1 1 0 1 1 0 1 3 6 3 4 3 2 4 3 2 2 2 2 4 4 7 8 8 11 10
1 1 1 1 1 2 1 1 3 6 5 6 4 3 2 3 4 4 4 4 4 6 6 7 12 11 11 10
1 2 3 3 5 6 4 6 6 7 6 4 3 4 3 4 4 5 8 6 7 9 8 7 7 8 9 10
2 2 3 5 5 4 7 5 5 5 4 4 6 5 3 6 7 8 7 8 9 7 7 6 7 8 9 10
2 3 3 5 3 3 6 6 5 5 5 5 7 6 5 6 8 9 9 10 8 7 8 7 8 8 9 10
4 3 4 3 2 2 8 8 7 5 5 6 7 5 6 7 7 9 9 9 8 9 8 8 8 10 8 9
3 4 3 1 1 2 14 8 7 5 6 7 7 7 6 7 9 9 9 10 10 9 9 9 7 9 7 9
3 3 1 1 2 9 14 9 7 9 9 8 8 7 8 6 7 9 9 10 8 8 8 7 7 6 8 9
4 1 1 2 9 12 8 9 9 9 9 10 9 10 10 10 11 12 12 10 10 9 8 9 7 7 10 16
1 1 2 6 11 9 9 8 9 9 10 10 10 10 10 10 10 10 11 13 14 11 9 9 10 9 10 16
1 1 4 9 9 8 7 9 10 10 10 10 10 10 11 11 10 10 13 13 13 10 9 8 8 9 11 9
1 2 6 8 7 6 7 8 10 9 11 11 11 11 11 10 11 10 10 11 14 11 11 8 8 9 7 13
1 5 9 7 7 6 6 8 9 10 10 10 10 11 11 10 10 10 10 11 12 12 11 11 11 9 10 9
8 8 9 7 6 7 7 8 8 8 9 9 10 11 11 10 9 10 12 11 12 13 13 10 9 10 10 10
11 10 7 8 7 7 7 8 8 8 8 9 11 10 11 10 10 11 11 10 12 14 14 11 11 12 11 11

GFSFLT2_con_lsi_120.txt.gz
Lid_Strength_Index
1 1 1 1 0 -0 0 0 0 1 3 5 2 2 2 2 2 2 3 3 3 4 4 6 4 5 8 7
1 1 1 1 -0 1 1 0 0 2 5 2 1 2 2 3 2 2 2 1 2 4 5 4 6 8 8 11
1 1 1 1 -0 0 0 0 2 3 6 2 4 3 2 4 3 3 2 2 3 5 5 8 9 9 12 11
1 1 1 1 -0 1 1 1 2 6 5 6 4 3 2 3 4 4 5 5 5 7 8 9 14 12 11 10
1 1 2 3 5 6 4 6 6 7 6 4 3 4 3 4 4 5 8 7 9 10 9 8 8 8 9 10
2 2 3 5 5 4 7 5 5 6 5 4 7 5 3 7 7 9 8 9 10 9 8 8 8 8 10 11
2 4 3 4 3 3 6 7 6 6 5 5 7 6 6 7 9 9 9 11 9 8 9 9 9 9 10 11
3 3 4 2 2 2 9 9 7 6 5 6 8 5 5 7 8 9 9 10 9 9 9 9 9 11 8 9
4 4 3 1 1 2 15 8 7 5 6 7 7 7 5 7 10 10 9 10 10 10 10 10 8 10 7 9
4 3 2 1 2 10 15 9 7 8 9 8 7 7 7 6 7 9 9 10 9 9 10 9 8 7 9 9
5 2 1 3 10 13 7 9 9 9 9 9 9 9 10 10 11 13 12 11 11 9 8 10 7 8 11 19
3 2 3 7 14 9 9 7 8 9 10 9 9 9 10 11 10 11 12 14 15 11 10 9 11 10 11 18
4 2 6 11 10 8 7 9 9 11 10 10 10 10 10 11 11 11 13 14 13 10 10 9 9 10 13 10
2 4 8 10 8 6 6 7 10 9 11 10 11 10 11 10 11 10 10 11 15 11 11 9 8 10 9 14
3 6 11 10 7 6 6 8 9 9 9 10 10 10 11 10 9 10 10 11 13 13 11 12 12 11 12 11
8 9 11 8 6 6 6 7 7 7 8 9 10 10 10 10 9 10 12 11 13 15 13 11 10 11 12 12
12 12 10 9 7 7 7 8 8 7 7 8 10 9 9 8 9 10 11 11 13 16 15 13 11 13 12 12

GFSFLT2_con_lsi_123.txt.gz
Lid_Strength_Index
1 1 1 1 1 -0 -0 -0 -0 1 4 5 4 4 3 4 3 3 4 4 4 6 7 8 6 6 9 8
1 1 1 1 1 -0 0 0 -0 3 7 3 4 3 3 4 3 3 3 3 4 5 6 6 7 9 9 12
1 1 1 1 1 -0 -1 -0 3 5 7 2 5 4 4 4 4 4 4 3 4 6 6 10 13 11 14 12
1 1 1 1 1 1 2 1 1 8 6 7 5 4 4 4 5 5 5 6 8 10 10 13 16 14 13 12
1 1 3 5 7 8 6 7 7 8 7 6 4 5 4 5 5 7 11 8 12 14 13 12 10 11 12 12
1 2 4 6 6 6 8 6 6 6 6 6 7 6 5 8 9 12 10 12 14 11 10 10 10 11 12 12
2 4 5 5 4 4 9 7 6 7 6 6 8 8 7 9 10 12 12 14 12 9 10 11 11 12 12 12
5 5 6 3 3 4 12 10 8 6 5 6 8 6 6 8 10 11 11 12 10 10 11 11 11 14 9 9
7 6 5 3 4 5 18 8 8 5 6 8 7 7 6 8 11 11 13 14 12 12 12 12 10 12 9 10
5 5 4 3 4 12 17 10 8 9 10 8 8 7 8 8 8 11 11 12 10 11 12 10 10 9 9 11
7 4 4 5 14 16 9 10 10 9 10 10 10 10 10 12 14 16 16 13 12 11 10 12 10 11 13 19
4 5 5 9 17 11 11 8 9 10 12 11 11 10 11 13 12 13 15 16 17 13 12 12 13 13 13 19
3 5 8 14 13 11 9 10 10 13 13 11 11 12 13 13 13 13 16 16 15 12 12 11 12 13 15 11
5 6 10 11 11 8 8 10 13 12 13 12 13 13 13 11 12 11 12 14 18 13 11 11 10 13 11 15
5 9 13 12 9 8 8 10 11 12 11 12 12 13 12 11 10 11 12 14 16 15 13 14 14 13 14 14
10 12 12 11 7 8 8 9 10 9 11 11 12 12 12 11 9 11 13 13 15 17 16 13 12 13 15 15
14 14 13 11 9 8 9 10 10 9 9 11 12 11 11 9 10 11 12 13 15 18 18 15 14 15 13 14

GFSFLT2_con_lsi_129.txt.gz
Lid_Strength_Index
0 0 1 1 1 1 0 0 -0 1 5 7 5 4 2 5 4 4 6 5 6 8 8 10 8 8 10 10
0 1 1 1 1 1 0 0 -0 3 9 3 5 4 4 5 4 4 4 5 5 7 8 8 10 11 13 14
0 1 1 1 1 1 -0 0 4 6 9 3 6 5 5 6 5 5 5 4 6 8 9 13 15 14 16 15
0 0 1 1 1 2 1 1 2 7 7 8 6 5 6 5 6 6 7 7 9 12 13 16 19 17 17 15
0 1 3 6 8 9 6 9 8 8 8 6 5 7 5 6 7 9 12 10 12 15 14 13 13 14 15 15
1 1 4 7 8 7 10 7 6 6 7 7 9 7 6 9 9 12 11 14 14 11 11 12 13 14 15 15
1 4 6 6 5 5 11 9 6 7 7 7 9 9 7 9 11 13 13 15 13 11 12 13 14 15 15 15
5 6 6 3 4 5 15 13 8 8 7 7 9 7 7 9 12 13 13 13 11 12 13 14 13 16 12 12
7 8 5 4 4 8 19 11 9 6 7 8 9 9 8 9 13 12 13 14 13 14 14 14 13 14 12 12
5 5 5 4 5 14 19 12 9 10 10 10 9 8 9 9 9 12 13 13 12 13 14 12 12 11 12 13
9 5 5 6 13 17 11 12 11 10 11 12 11 11 12 13 14 16 16 14 14 12 12 14 12 13 15 21
4 5 6 9 18 14 12 10 10 11 13 12 12 12 13 14 13 14 17 17 18 13 12 14 15 15 16 22
3 6 9 15 14 13 10 10 12 14 14 12 13 13 14 14 13 13 16 17 17 13 14 12 13 15 17 14
4 9 12 14 11 9 8 10 13 13 15 14 14 14 14 13 12 12 13 15 18 14 13 12 12 14 12 17
6 11 17 17 12 8 8 10 11 13 14 14 14 15 14 13 12 12 12 15 17 17 15 15 15 14 15 16
13 14 16 14 10 10 7 8 10 11 13 13 14 14 14 13 11 11 14 14 17 18 16 14 13 14 15 16
14 16 14 14 12 12 10 9 10 9 11 13 15 13 13 11 10 12 13 13 17 19 18 16 15 16 15 16

GFSFLT2_con_lsi_132.txt.gz
Lid_Strength_Index
1 1 1 1 1 1 0 -0 -0 1 6 8 5 3 3 5 5 5 6 6 6 8 9 10 8 9 11 11
1 1 1 1 1 0 0 -0 -0 4 9 5 5 4 4 5 5 4 5 5 5 7 9 8 11 13 13 15
1 1 1 0 0 1 -0 -0 4 7 10 3 6 5 5 6 5 5 5 4 6 9 10 14 16 15 17 16
0 1 1 1 0 1 1 1 2 8 7 8 6 5 6 5 7 7 7 8 10 12 13 16 19 18 17 16
0 1 3 6 8 9 6 9 9 9 9 7 6 7 6 6 7 9 12 11 13 14 13 13 14 15 16 16
0 1 5 8 7 7 10 7 7 6 6 7 9 8 6 9 10 12 12 14 15 11 12 13 13 15 16 16
1 6 9 7 5 5 11 10 7 7 7 7 9 9 7 10 11 13 13 15 13 11 12 14 14 15 16 16
7 7 7 6 4 6 15 13 9 7 7 7 10 7 7 9 12 13 14 14 12 12 14 14 14 17 14 13
7 8 7 6 4 8 19 11 9 6 8 9 9 9 8 10 13 12 13 14 14 14 14 14 13 15 12 13
6 6 5 5 6 14 19 12 9 10 10 10 10 9 10 9 10 12 13 14 12 13 14 13 13 11 13 14
9 7 7 6 13 18 12 12 11 10 11 12 11 11 12 13 14 16 16 15 14 13 12 15 13 13 16 21
4 6 7 10 18 15 13 9 10 11 12 12 12 12 13 15 14 15 17 17 18 14 12 15 15 15 16 21
1 5 9 14 17 16 11 10 11 13 14 13 13 14 14 15 13 14 16 17 17 14 14 12 13 15 17 15
1 7 12 15 13 11 9 10 12 11 14 14 14 14 15 13 13 13 13 15 18 15 14 12 13 15 13 17
2 8 15 16 14 10 9 10 11 12 12 14 14 15 15 13 12 13 13 15 16 18 15 16 16 15 15 17
9 9 13 13 11 11 10 10 10 10 12 12 14 14 14 13 11 12 14 15 16 19 17 15 13 14 15 16
12 11 10 10 11 13 12 11 11 10 10 12 14 14 13 11 11 12 14 14 17 19 18 16 15 16 16 16

GFSFLT2_con_lsi_135.txt.gz
Lid_Strength_Index
0 0 1 1 1 0 -0 -0 -0 1 4 7 4 1 3 4 3 4 5 4 5 6 7 8 7 8 10 10
0 0 1 1 1 -0 -0 -0 -1 2 8 5 4 3 3 4 4 3 4 4 4 6 7 7 10 11 11 12
0 0 0 1 1 0 -1 -0 4 6 9 2 5 5 4 5 4 4 4 4 5 7 9 12 13 13 14 14
1 0 0 1 2 1 0 0 2 7 7 8 6 5 4 4 6 6 6 7 9 10 11 12 15 15 14 14
1 1 3 6 8 8 5 8 8 9 8 6 5 6 5 5 6 7 10 9 11 12 11 12 13 13 14 14
1 2 6 7 7 7 9 7 6 6 6 6 8 7 5 7 8 10 10 11 12 10 10 12 12 13 14 14
2 8 10 7 6 5 10 9 7 7 7 7 8 8 6 8 10 11 12 13 12 11 11 13 13 13 14 14
7 8 9 7 7 6 14 13 9 7 7 7 9 7 6 8 10 11 12 12 11 12 12 13 13 15 13 13
5 8 9 7 6 9 19 12 9 5 7 8 9 8 7 9 11 12 12 12 13 13 13 13 12 13 11 12
6 5 6 7 8 15 20 13 9 9 9 9 9 9 9 8 9 11 11 12 11 11 12 12 12 11 11 13
5 5 5 7 14 19 13 14 12 10 10 10 10 10 11 12 13 15 15 13 12 11 11 13 11 12 13 16
2 4 7 10 17 15 14 11 11 11 12 10 11 11 12 13 12 14 15 16 16 13 12 13 14 13 14 17
1 2 8 14 17 15 12 12 12 13 12 11 11 12 13 13 12 13 14 16 15 12 12 11 11 14 14 14
-0 3 9 13 13 11 10 10 13 12 13 13 12 13 14 12 12 12 12 13 16 13 12 11 11 12 12 15
1 6 12 12 11 9 10 10 12 12 12 13 12 13 13 12 11 13 12 14 14 15 13 14 14 13 13 15
9 9 11 9 7 9 9 11 10 11 12 12 13 13 13 12 11 12 13 13 15 17 15 14 12 12 13 14
14 11 9 9 8 9 9 12 11 10 11 12 13 12 12 10 11 12 13 13 15 18 16 14 13 14 14 15

GFSFLT2_con_lsi_138.txt.gz
Lid_Strength_Index
1 0 0 -0 0 1 0 -1 -1 0 4 6 2 -1 0 2 1 2 4 3 4 5 5 7 6 6 8 7
1 0 0 -0 -0 0 0 -1 -1 1 6 3 1 1 2 3 2 2 3 2 3 5 5 5 7 8 9 10
1 1 1 0 1 0 -0 -0 1 3 7 2 4 2 2 4 3 2 2 3 3 5 6 7 10 9 12 11
1 1 1 2 1 1 0 0 1 5 5 6 4 3 2 2 4 4 4 5 5 7 7 9 12 12 12 11
1 1 3 4 6 6 4 6 6 6 6 4 3 4 3 4 4 5 8 6 8 10 9 8 9 10 11 11
2 2 6 6 7 6 8 5 5 5 4 3 6 5 3 6 6 8 7 9 10 8 8 8 9 10 11 11
2 4 6 6 5 5 8 7 6 6 5 4 6 6 4 5 7 8 9 10 9 9 9 10 10 10 11 11
4 3 7 5 4 4 11 11 9 7 6 5 7 4 4 5 7 9 8 9 8 10 10 10 10 12 10 10
3 3 5 3 3 5 17 10 10 5 6 7 7 7 3 6 8 9 9 10 10 11 11 10 9 11 10 10
5 3 3 2 4 11 17 12 9 9 9 8 8 7 6 6 6 8 9 9 9 9 10 10 9 9 10 10
8 3 2 5 11 15 11 12 11 9 10 10 9 8 8 9 10 12 12 10 10 9 9 11 10 10 11 13
4 3 3 8 15 12 12 9 10 10 11 10 10 9 9 10 8 9 10 12 13 10 9 10 11 11 11 14
2 1 6 14 12 11 10 10 10 11 11 10 10 10 10 10 8 9 11 12 12 10 10 10 9 11 13 11
2 2 8 12 10 7 8 8 11 10 12 11 11 11 10 9 9 8 7 10 13 11 10 9 9 10 9 13
0 6 12 10 8 6 6 9 9 9 10 10 10 11 10 9 8 8 8 9 11 13 11 11 11 12 12 11
7 7 10 8 6 7 6 8 8 9 9 9 11 11 11 9 8 8 11 8 10 13 13 11 10 9 11 11
10 10 7 8 7 7 7 8 9 7 9 10 12 10 9 9 8 9 9 10 11 14 14 12 11 12 11 10

GFSFLT2_con_lsi_141.txt.gz
Lid_Strength_Index
0 1 0 0 0 0 0 0 -0 0 3 5 2 0 0 1 1 2 4 3 4 5 5 6 5 5 7 7
1 1 0 0 0 1 1 -0 -1 2 5 1 1 0 0 2 1 1 2 3 3 4 5 4 6 7 7 10
1 1 1 1 1 1 1 0 1 3 6 2 3 1 1 3 2 2 2 2 3 5 5 7 8 8 11 10
2 2 1 1 2 2 1 1 2 5 5 6 3 2 1 2 4 3 4 4 5 7 7 8 12 10 10 10
3 2 2 5 5 5 4 6 6 6 6 3 2 3 2 3 4 5 7 5 8 9 8 7 8 9 10 10
4 3 3 6 6 6 9 6 6 6 4 3 5 4 2 5 6 8 7 7 9 7 7 7 8 9 10 10
4 3 5 7 4 3 8 8 6 7 6 5 6 5 4 5 6 8 8 9 8 8 8 9 10 10 10 10
3 2 5 3 3 2 11 10 8 7 6 6 8 4 3 4 6 8 7 8 6 8 9 10 9 11 9 9
6 5 3 2 2 3 16 9 9 5 6 8 7 7 3 4 7 7 7 9 8 9 10 9 8 10 9 10
6 5 4 2 3 10 16 11 8 9 9 7 8 7 6 4 4 7 7 8 7 8 8 8 8 8 9 9
8 5 4 4 11 14 10 10 10 8 9 9 8 8 8 8 9 11 10 9 9 8 8 10 9 9 11 13
4 5 4 8 14 12 11 8 8 8 10 9 9 9 9 10 8 8 9 11 12 9 8 9 10 10 10 14
4 3 6 13 13 11 9 8 8 10 10 8 9 9 9 10 9 8 10 10 11 8 8 8 8 10 12 9
3 4 9 12 11 8 6 7 10 9 11 9 10 9 9 8 9 8 6 9 11 9 9 9 9 9 8 13
2 6 11 12 10 8 6 9 10 9 9 9 9 9 9 8 7 7 6 8 9 11 10 11 11 11 11 11
7 8 10 9 7 9 6 7 8 8 9 8 9 9 9 8 6 7 9 8 9 12 12 9 8 9 10 10
10 10 8 8 7 7 7 7 8 7 7 10 11 9 8 6 6 7 9 8 10 13 12 11 10 11 10 9

GFSFLT2_con_lsi_144.txt.gz
Lid_Strength_Index
2 1 1 1 0 0 1 1 1 1 5 7 2 -0 1 1 1 2 4 3 4 5 5 7 5 6 8 7
2 2 2 1 1 1 1 1 1 3 7 2 2 2 1 2 1 2 2 2 2 5 6 5 6 8 8 11
3 3 3 2 1 1 1 0 3 4 8 1 4 2 1 3 3 2 2 2 3 6 6 8 10 9 12 11
3 3 3 2 1 2 2 1 3 6 6 7 4 3 1 2 4 4 4 5 6 8 8 9 14 11 11 10
4 4 4 5 6 6 4 6 6 7 6 5 3 4 2 3 4 5 8 6 9 11 9 8 9 9 10 11
4 4 4 6 7 6 10 6 7 6 5 4 7 6 3 6 6 8 7 8 11 8 7 7 8 9 11 11
4 3 4 6 3 4 9 8 7 8 7 5 7 7 5 6 7 8 8 10 8 6 7 8 9 10 11 11
5 7 5 3 2 3 11 11 9 7 7 6 8 5 5 6 8 9 8 8 7 8 9 10 9 12 9 10
7 9 6 5 4 4 17 9 9 5 6 8 7 7 5 7 9 9 8 9 8 9 9 9 8 11 8 10
7 7 6 6 5 12 17 10 8 9 9 8 8 6 7 5 6 9 8 8 6 7 8 7 8 8 10 10
8 5 6 6 12 16 10 10 10 9 9 10 9 8 9 9 10 12 12 9 8 7 7 10 9 9 12 18
5 5 7 8 15 13 11 8 7 8 10 9 9 9 9 11 9 9 11 13 14 9 8 9 11 11 12 18
4 5 9 14 15 12 10 9 8 11 10 8 8 9 9 9 8 8 12 12 12 7 7 8 9 11 13 10
4 6 11 15 13 9 9 9 12 9 11 9 9 10 10 8 8 7 7 9 13 9 9 8 8 10 9 14
4 8 13 13 12 9 9 11 10 10 10 10 9 10 10 8 7 7 6 8 10 11 10 12 11 11 12 12
8 9 11 10 9 10 8 9 9 10 11 9 11 11 11 8 6 7 9 7 10 13 13 9 9 10 11 11
12 11 8 9 8 9 9 9 8 8 8 10 12 10 10 7 7 8 9 8 11 15 13 12 11 12 10 10

GFSFLT2_con_lsi_147.txt.gz
Lid_Strength_Index
4 3 3 3 3 2 1 1 1 2 6 8 3 0 1 2 1 3 4 4 5 7 7 9 6 7 10 9
4 3 3 3 3 2 1 1 1 3 9 4 5 2 2 2 2 2 3 3 4 6 7 7 7 9 10 13
4 3 3 3 2 1 1 1 4 6 9 3 6 4 3 3 3 3 4 3 4 7 8 10 12 12 14 13
4 4 4 3 2 2 2 2 3 8 6 7 6 5 4 3 4 5 5 6 8 10 11 12 16 14 14 12
4 4 5 6 9 9 7 7 7 7 6 5 5 6 5 4 5 7 9 8 11 13 11 10 10 11 12 13
5 5 5 9 8 8 11 6 6 7 5 5 7 7 4 7 9 10 9 10 12 9 8 9 9 10 12 13
5 7 9 7 6 6 11 8 7 8 7 7 8 8 6 7 10 11 11 12 10 7 8 9 10 11 12 13
8 9 8 8 8 7 14 11 9 8 7 7 9 6 6 7 9 11 11 11 8 9 9 10 10 14 10 10
9 10 9 8 8 7 21 10 9 6 7 9 8 8 5 7 10 10 10 12 11 10 10 10 9 12 9 11
9 9 8 8 8 13 19 11 8 9 10 9 8 7 8 7 7 9 10 10 8 9 9 8 8 8 10 11
9 7 7 10 14 17 11 11 10 9 11 11 10 9 9 11 11 13 13 11 11 9 9 11 9 10 14 19
6 6 9 11 18 14 14 10 10 10 11 10 10 9 10 12 9 10 12 14 15 10 10 11 12 12 13 18
6 7 12 16 16 14 12 12 11 12 13 11 10 11 11 11 9 8 12 13 13 9 8 9 10 13 14 11
5 8 14 17 14 11 11 11 15 11 13 12 12 12 12 10 9 7 7 10 14 10 9 9 10 12 10 15
6 10 15 15 13 11 10 12 12 13 12 13 11 12 12 9 9 8 7 8 11 12 11 12 13 13 13 13
10 12 13 11 8 10 9 10 10 11 12 12 12 12 12 10 8 8 11 10 11 14 12 10 9 11 12 12
14 12 10 10 9 9 9 9 10 9 9 11 13 10 10 7 7 9 11 9 13 15 15 12 11 13 13 12

GFSFLT2_con_lsi_150.txt.gz
Lid_Strength_Index
4 4 4 4 4 3 3 2 1 2 6 10 5 0 0 2 2 3 4 5 5 8 8 9 7 7 10 9
4 4 4 4 3 3 2 1 1 4 10 5 5 1 2 4 3 3 3 4 5 7 8 8 8 10 11 13
4 4 4 4 3 2 2 1 5 6 9 3 6 4 3 4 4 4 4 3 5 8 8 11 13 12 15 14
4 4 4 4 3 3 2 2 3 9 7 8 6 5 4 4 5 6 6 6 8 10 11 13 16 15 15 13
4 4 5 8 9 10 8 9 8 9 7 5 5 7 4 5 6 8 11 8 11 13 11 11 11 12 13 13
4 4 7 8 10 9 12 7 8 8 7 6 8 7 4 7 9 11 10 11 13 9 9 9 10 11 13 13
4 8 10 11 9 9 11 9 7 8 8 8 9 8 7 7 9 11 11 13 11 8 9 10 11 11 13 13
9 9 10 9 9 9 15 13 9 8 8 8 10 6 6 7 10 11 11 12 9 10 10 11 10 13 10 11
9 11 9 8 8 8 22 12 10 7 8 9 9 8 5 7 9 10 11 12 11 11 12 10 9 11 9 11
8 8 7 7 9 14 21 13 9 10 11 10 9 7 8 6 7 9 10 10 8 10 10 9 9 9 11 12
9 7 7 10 14 17 12 13 11 10 11 11 10 9 9 10 11 13 13 11 11 9 9 11 10 11 13 19
5 6 9 11 17 15 13 11 12 12 13 11 11 11 12 13 10 10 12 14 16 11 9 10 12 13 14 18
6 7 13 17 15 13 12 14 13 13 13 12 12 12 13 12 11 9 12 14 14 9 9 9 10 13 15 12
6 9 15 17 15 11 12 13 16 13 14 14 13 13 14 11 10 9 8 10 14 10 9 9 10 12 11 16
8 11 15 16 13 10 10 12 13 14 15 15 14 12 11 10 9 9 9 10 11 12 10 12 12 13 14 14
12 10 12 11 8 10 8 10 10 12 13 13 15 14 13 10 8 9 12 10 13 14 12 10 9 9 11 13
14 15 11 10 9 9 9 9 10 9 10 12 14 12 11 7 7 9 11 10 14 17 16 12 11 12 12 12

GFSFLT2_con_lsi_153.txt.gz
Lid_Strength_Index
4 4 4 4 3 3 3 3 3 3 7 11 5 1 0 2 3 4 5 5 5 8 9 10 8 8 10 9
4 4 4 3 3 3 2 2 2 6 11 7 5 1 2 4 4 4 4 5 5 7 9 8 9 11 12 14
4 4 3 3 2 1 1 1 6 8 12 4 7 5 3 6 5 5 5 4 6 8 9 12 14 13 17 14
3 3 4 3 3 3 2 2 4 11 9 10 7 6 4 4 6 6 7 8 9 11 12 13 18 16 15 14
4 4 6 7 10 10 9 10 9 9 9 7 6 8 5 5 6 8 11 10 12 13 12 12 12 13 14 14
4 5 8 11 11 11 14 9 9 8 7 7 10 7 6 8 9 11 11 12 13 10 10 10 11 12 14 14
4 8 10 10 9 10 13 10 8 8 8 8 11 9 7 8 10 11 11 12 11 9 10 11 12 12 13 14
9 9 11 9 8 10 15 13 10 8 8 8 11 7 6 7 10 11 11 11 9 10 11 12 11 14 10 10
10 10 9 8 8 9 22 12 9 7 8 10 9 8 6 7 10 10 10 12 11 10 11 11 11 12 9 11
8 8 7 7 8 16 21 14 9 11 12 11 10 8 8 6 6 9 10 10 8 9 10 9 10 10 12 13
9 6 6 9 14 18 13 14 12 11 12 12 11 11 11 11 11 13 13 11 10 9 9 11 10 12 14 19
6 5 9 11 17 15 13 11 12 12 12 10 11 10 11 13 10 11 13 14 16 11 9 10 12 12 13 18
6 7 13 17 17 14 12 14 14 14 13 12 13 12 12 12 11 10 13 14 15 10 9 8 9 13 16 12
7 10 16 18 16 13 13 14 17 14 15 15 15 14 13 10 10 9 10 12 14 11 9 9 10 12 11 15
8 12 17 17 13 10 10 12 14 14 14 15 15 15 13 10 9 9 9 11 13 13 10 11 12 12 13 14
14 12 16 12 9 10 8 9 10 11 13 13 14 15 15 12 8 9 11 10 13 16 12 10 9 9 11 11
19 18 13 12 11 11 11 10 10 9 9 12 14 12 12 8 8 9 11 10 14 18 16 12 11 12 12 11

GFSFLT2_con_lsi_156.txt.gz
Lid_Strength_Index
4 4 4 3 3 3 2 2 2 3 8 12 6 2 0 2 3 5 6 6 7 9 9 11 9 9 11 10
3 3 3 3 3 2 1 2 2 5 12 7 7 4 1 5 4 4 5 5 6 8 10 9 10 12 13 14
3 3 3 3 2 1 1 1 6 9 12 5 7 6 3 6 5 5 5 5 7 10 10 13 14 14 17 15
3 3 4 3 3 3 3 2 3 10 9 10 7 6 5 6 7 7 7 8 10 12 13 14 17 17 16 15
3 4 7 10 12 12 12 10 10 9 8 7 6 9 6 6 8 9 11 11 13 14 13 13 13 14 14 14
4 6 9 12 12 13 15 10 10 10 8 7 10 8 6 9 10 12 11 13 14 11 10 12 12 13 15 14
5 9 11 11 9 10 15 11 8 8 8 7 10 10 7 9 10 12 12 13 12 9 10 12 13 13 14 14
9 10 12 10 9 10 16 14 10 8 7 8 11 7 7 8 10 12 11 12 10 10 11 12 11 14 11 11
11 11 10 8 8 9 22 13 9 6 8 10 10 9 6 7 10 10 11 13 12 11 12 11 11 13 10 11
9 8 7 8 9 18 22 14 9 10 11 10 10 8 9 7 7 9 10 11 8 9 10 9 9 10 12 13
11 7 7 9 16 20 13 14 13 12 12 12 11 11 11 11 11 13 13 11 11 9 8 11 10 11 14 18
7 7 10 12 19 16 14 12 13 13 14 12 12 11 12 13 10 10 12 14 16 10 9 10 11 12 13 17
7 9 15 19 19 15 15 16 15 16 15 13 15 13 13 13 11 10 13 14 15 10 9 8 9 13 14 12
8 11 16 17 18 13 13 13 19 16 17 16 15 16 15 10 11 9 9 11 15 10 9 9 10 11 11 15
9 13 19 18 14 11 11 13 14 14 15 15 15 15 14 12 9 10 9 11 12 13 10 11 12 13 13 13
15 16 18 14 10 11 10 11 11 11 13 13 14 15 15 13 9 9 13 10 13 16 13 10 9 10 11 11
22 21 15 13 12 12 12 12 12 10 9 11 13 12 12 9 8 9 10 9 14 18 16 13 10 12 12 12

GFSFLT2_con_lsi_159.txt.gz
Lid_Strength_Index
3 3 3 3 3 3 2 2 2 3 7 10 5 5 0 1 3 5 6 6 6 7 8 10 8 9 10 9
4 4 3 3 3 1 1 2 1 4 11 6 5 4 0 4 3 4 5 5 6 7 9 8 10 11 11 12
3 3 3 4 2 1 1 1 5 8 11 4 6 5 1 5 4 5 4 6 7 9 9 11 12 13 15 14
4 3 4 5 4 3 4 2 4 9 8 9 7 5 3 5 6 6 7 8 9 11 12 12 15 15 14 14
4 5 8 11 13 12 12 11 9 9 8 6 5 7 4 6 6 8 11 10 11 13 11 12 12 14 14 14
4 6 9 12 12 12 16 11 11 11 9 7 9 7 4 8 9 12 11 11 13 10 10 11 12 12 13 13
6 9 11 11 9 11 16 12 10 9 7 7 10 9 6 8 9 12 11 13 11 10 11 12 12 12 13 13
10 10 12 9 9 10 16 15 11 8 7 7 9 6 6 7 9 11 11 11 10 10 11 12 11 14 11 11
11 12 10 9 8 10 20 13 9 5 7 9 8 8 5 6 10 10 9 11 11 11 11 11 10 12 10 11
10 9 8 8 9 18 21 14 10 11 12 10 9 7 7 5 5 8 9 10 8 9 9 8 9 9 11 12
11 8 8 10 18 21 14 15 14 13 13 13 11 10 9 9 11 13 13 10 10 8 8 10 9 9 12 17
8 8 11 13 21 17 16 14 15 14 14 13 13 13 11 12 9 10 12 14 15 10 8 9 11 11 12 17
8 10 15 20 19 16 15 15 15 17 16 15 15 15 15 12 11 11 13 14 14 8 8 7 8 11 14 10
9 11 16 17 17 13 13 13 18 16 18 16 16 15 16 11 10 10 10 11 15 10 8 7 8 9 9 15
9 13 18 17 14 12 12 14 15 15 15 16 15 15 15 12 10 11 9 10 12 13 9 11 12 11 12 12
16 16 18 14 12 13 13 13 11 12 14 14 14 14 14 12 9 9 11 9 12 15 13 9 9 9 11 11
22 21 16 15 13 13 13 13 13 11 11 13 15 12 12 9 8 9 10 9 13 17 16 12 10 13 12 12

GFSFLT2_con_lsi_162.txt.gz
Lid_Strength_Index
4 4 3 3 3 3 1 1 1 2 6 8 4 3 -0 1 1 3 5 4 4 6 7 8 7 8 9 8
4 4 3 3 3 1 1 1 1 3 8 5 4 4 0 1 1 2 4 3 4 6 7 7 8 9 9 11
4 3 3 4 3 1 1 1 3 5 8 3 6 4 3 3 2 2 3 3 4 6 7 9 10 9 12 11
4 4 4 6 6 2 4 1 3 7 6 8 5 5 2 3 4 4 5 6 6 8 9 10 13 12 12 11
5 5 6 8 10 9 10 10 10 7 7 6 4 5 3 4 4 5 8 7 9 11 10 9 9 10 12 12
5 6 7 10 11 11 13 11 11 10 9 8 10 7 3 6 7 9 7 9 11 9 9 9 10 10 11 11
5 7 9 10 8 9 13 11 9 8 7 7 9 8 5 6 7 9 9 10 9 8 9 10 11 11 12 11
8 8 10 8 7 8 12 12 9 7 6 6 8 5 5 5 7 9 8 9 8 9 10 10 10 12 9 10
9 9 9 7 7 8 16 12 8 4 6 8 8 7 4 5 8 8 8 9 9 9 10 10 8 10 9 9
8 7 7 6 7 13 16 13 10 11 11 10 9 7 6 4 5 8 7 8 6 7 8 8 8 8 9 10
9 6 6 7 14 16 11 14 14 12 12 12 12 11 11 10 10 11 10 8 8 6 6 9 7 8 11 15
6 6 8 11 17 15 14 13 13 13 14 13 13 13 12 12 9 10 10 12 12 8 7 8 9 10 10 16
6 6 11 16 17 15 14 14 14 15 14 13 14 13 13 10 11 11 13 12 12 7 7 6 7 10 13 9
6 8 13 16 15 12 12 13 17 15 16 15 15 14 14 12 11 11 9 10 13 8 7 6 7 8 7 14
6 11 14 15 14 12 12 15 15 16 15 15 14 15 15 12 10 10 9 9 11 11 8 10 10 11 12 11
12 12 14 13 12 13 12 14 13 13 14 14 14 14 14 12 8 9 11 8 12 14 11 8 7 9 12 11
15 14 13 14 14 14 13 13 14 12 12 13 14 13 11 8 7 9 10 8 10 15 12 9 9 13 12 12

GFSFLT2_con_lsi_168.txt.gz
Lid_Strength_Index
4 4 4 4 3 3 2 1 1 3 6 7 4 4 2 2 1 2 4 4 4 6 6 8 6 7 9 9
4 4 4 4 3 3 1 2 1 3 7 4 4 5 4 2 1 2 3 3 3 5 6 6 7 9 9 12
5 4 4 4 3 3 1 2 3 4 8 4 5 4 4 4 3 3 3 3 4 6 7 9 11 10 13 12
5 4 4 3 3 4 2 2 3 6 5 7 6 5 4 4 5 4 5 6 7 9 9 11 14 12 12 11
4 4 5 7 9 9 8 10 10 10 9 8 6 7 4 5 5 5 8 7 10 12 10 9 9 10 11 12
5 4 6 9 10 10 12 9 8 9 7 6 9 7 4 7 7 10 8 9 11 8 8 8 9 10 11 12
5 6 8 9 6 6 11 8 7 6 5 5 7 7 6 6 8 9 9 11 9 7 8 9 10 10 11 11
7 8 8 7 5 5 12 10 8 6 5 5 7 5 5 6 7 9 9 9 7 8 9 9 9 12 8 9
8 8 7 6 5 6 17 8 8 5 7 9 8 7 4 5 8 8 8 10 8 9 10 9 8 10 7 9
6 6 5 5 6 11 16 11 9 10 10 9 9 8 8 6 6 9 8 9 6 8 8 7 7 7 9 9
9 5 5 7 12 15 9 13 12 11 11 12 11 11 12 12 12 14 13 10 10 8 8 9 7 8 11 17
5 5 7 11 16 11 13 11 12 12 14 13 12 13 13 13 10 12 13 14 15 9 10 11 12 11 11 17
6 5 10 16 13 13 12 14 13 14 14 13 14 14 13 13 11 11 15 15 15 10 10 9 10 12 13 10
6 8 12 14 13 12 13 13 16 14 16 15 16 15 15 12 12 10 11 13 17 11 10 10 9 10 9 14
8 10 15 14 13 12 13 15 15 16 16 17 15 16 15 12 11 11 11 12 14 15 12 13 14 13 12 11
14 13 15 13 12 13 12 13 14 14 16 15 16 15 15 13 10 10 13 11 14 17 15 11 10 11 12 13
16 15 13 14 13 14 13 14 14 13 14 15 17 14 13 9 9 10 11 11 14 18 17 13 10 12 11 12

GFSFLT2_con_lsi_171.txt.gz
Lid_Strength_Index
4 4 4 3 4 4 3 2 1 3 6 8 6 6 4 3 3 3 4 5 6 8 8 9 8 9 11 10
4 4 4 4 3 3 3 1 1 4 8 4 7 6 5 4 3 3 3 4 5 6 8 8 9 11 12 15
5 4 4 4 3 2 3 1 4 5 9 4 6 5 5 6 4 3 3 3 5 8 8 12 14 13 16 14
5 4 4 3 3 4 3 3 3 7 6 8 7 7 6 5 5 4 5 6 8 11 11 13 17 15 15 14
4 4 6 10 12 11 10 11 10 10 9 7 6 7 5 4 5 6 9 8 11 13 11 11 11 12 12 13
5 5 7 11 11 11 13 9 9 8 7 6 9 8 6 7 8 10 9 10 12 10 9 9 10 11 13 13
4 7 9 10 7 7 13 10 8 8 6 6 7 8 7 8 10 11 10 12 10 7 8 9 10 11 12 12
7 10 10 8 7 7 15 12 10 7 6 5 8 6 6 7 8 10 10 10 8 9 9 11 10 13 10 10
10 10 9 8 8 9 19 10 9 7 8 10 10 9 5 7 9 9 10 11 10 10 10 10 8 11 8 10
9 9 8 8 9 14 18 13 11 12 12 11 11 10 10 8 7 10 10 11 8 9 10 9 8 8 9 10
12 9 9 11 16 19 11 15 14 12 13 13 13 12 13 13 14 15 16 13 12 10 10 12 10 12 13 18
9 9 10 14 20 14 15 12 12 13 15 14 14 14 14 15 13 14 16 17 18 13 12 14 15 13 12 17
8 8 12 18 17 15 13 14 14 16 15 15 16 15 15 13 13 14 16 17 17 12 12 12 11 13 14 12
8 9 13 15 14 12 13 13 17 15 18 18 17 17 17 14 13 13 13 15 19 14 13 12 11 13 12 14
9 11 16 15 12 13 13 16 16 16 18 19 17 17 16 13 13 13 13 14 16 17 14 15 16 14 15 14
14 14 16 13 10 14 13 15 15 16 17 16 17 17 16 14 11 12 14 12 16 20 17 13 12 13 14 12
16 16 13 13 13 14 14 15 15 14 14 16 18 15 14 11 10 11 13 12 17 22 20 16 12 14 12 11

GFSFLT2_con_lsi_174.txt.gz
Lid_Strength_Index
3 3 3 4 3 3 3 3 1 3 7 9 7 4 2 3 3 3 4 5 6 9 9 10 8 9 11 11
4 4 4 4 4 3 3 3 2 5 9 4 7 6 5 6 3 3 3 4 5 7 8 8 9 11 12 15
4 4 4 4 3 2 3 2 4 6 9 3 6 6 6 6 5 3 3 2 5 8 8 11 13 13 16 15
4 4 5 4 3 4 4 3 3 8 7 9 8 7 7 5 6 5 6 6 9 11 12 13 17 15 15 14
4 5 6 11 13 13 12 13 11 11 10 8 6 8 7 5 6 8 10 9 12 14 12 11 11 12 13 14
5 5 9 12 12 12 13 9 9 9 8 7 9 8 7 8 9 12 10 11 13 10 9 9 10 11 13 13
5 9 11 11 8 8 14 11 9 9 8 7 8 9 8 9 11 12 12 13 10 8 9 10 11 11 12 12
10 12 11 9 8 9 17 13 11 8 7 7 9 7 7 9 10 12 11 12 9 9 10 11 10 13 10 10
14 12 10 10 9 10 20 11 10 7 10 11 12 11 8 9 11 11 12 12 11 11 12 11 10 11 9 10
10 9 10 10 10 16 20 14 12 13 13 12 12 11 11 10 10 11 12 12 9 10 12 10 11 10 10 10
13 9 9 12 17 20 12 15 14 13 14 15 14 14 13 14 15 17 17 14 13 12 11 13 11 11 12 18
9 8 10 13 18 14 14 12 13 14 15 15 16 15 15 16 14 15 17 18 18 14 13 14 16 15 13 17
7 8 12 18 17 15 13 14 14 17 17 16 16 17 16 15 15 15 18 18 17 13 13 13 13 15 17 14
7 8 13 15 14 12 12 13 17 15 18 18 18 18 18 15 15 14 14 17 20 15 14 12 12 14 13 16
8 11 16 15 12 12 12 15 15 16 17 18 17 17 17 15 14 14 14 16 18 18 15 16 16 15 16 14
14 13 15 13 9 13 12 14 14 15 16 16 17 17 17 15 12 13 16 15 18 21 19 14 13 14 14 14
16 15 13 12 10 12 14 14 14 14 14 17 18 16 15 12 11 13 14 14 18 24 21 18 14 16 14 14